Date,TemperatureHighF,TemperatureAvgF,TemperatureLowF,DewpointHighF,DewpointAvgF,DewpointLowF,HumidityHigh,HumidityAvg,HumidityLow,PressureMaxIn,PressureMinIn,WindSpeedMaxMPH,WindSpeedAvgMPH,GustSpeedMaxMPH,PrecipitationSumIn
2013-2-1,30,20,9,39,36,31,35,34,33,30.01,29.75,11,3,16,0.00
2013-2-2,46,35,29,40,37,33,34,33,33,29.75,29.57,13,4,13,0.00
2013-2-3,36,31,26,39,37,33,34,33,32,29.69,29.51,15,2,16,0.04
2013-2-4,62,41,28,40,37,32,36,34,32,29.51,29.25,13,4,13,0.04
2013-2-5,60,38,24,40,37,32,35,34,33,29.63,29.39,11,2,12,0.00
2013-2-6,52,40,24,40,37,33,34,34,33,29.75,29.54,11,2,11,0.00
2013-2-7,58,45,34,41,38,34,35,34,33,29.54,29.34,15,2,15,0.04
2013-2-8,41,36,31,40,38,34,35,34,33,29.87,29.54,15,5,15,0.00
2013-2-9,42,36,31,40,38,33,34,33,33,29.87,29.51,12,3,12,0.17
2013-2-10,57,48,38,40,38,35,36,34,33,29.51,29.10,15,5,17,0.79
2013-2-11,52,43,29,40,38,34,36,35,34,29.63,29.25,15,4,17,0.00
2013-2-12,47,37,24,40,37,32,35,34,33,29.66,29.42,6,0,6,0.00
2013-2-13,57,45,37,40,38,34,35,34,33,29.42,29.31,11,2,11,0.00
2013-2-14,58,46,35,41,38,34,37,34,33,29.54,29.31,10,2,11,0.00
2013-2-15,42,36,27,40,37,34,36,34,32,29.78,29.54,15,4,15,0.00
2013-2-16,38,29,20,39,36,31,34,33,32,30.01,29.69,15,3,15,0.00
2013-2-17,49,36,18,39,36,30,34,33,31,30.28,29.51,15,3,15,0.00
2013-2-18,57,47,35,40,38,34,35,34,33,29.96,29.25,17,6,18,0.04
2013-2-19,38,32,24,39,37,33,36,34,33,30.64,29.57,14,4,16,0.00
2013-2-20,28,24,20,38,36,30,34,33,32,31.02,30.49,9,3,9,0.00
2013-2-21,33,27,20,39,36,30,33,32,31,31.02,30.34,23,4,23,0.00
2013-2-22,38,32,21,40,37,34,34,33,32,31.02,30.52,11,2,11,0.25
2013-2-23,38,27,15,38,36,32,33,33,31,31.02,30.90,6,1,6,0.17
2013-2-24,45,32,17,40,37,32,34,33,32,31.02,31.02,10,1,10,0.00
2013-2-25,47,39,28,39,37,32,34,33,33,31.02,31.02,17,4,17,0.29
2013-2-26,47,39,35,39,37,33,34,33,33,31.02,31.02,15,4,15,0.62
2013-2-27,37,34,33,40,37,33,34,33,32,31.02,29.19,11,4,11,0.04
2013-2-28,36,34,33,39,37,33,34,33,32,29.60,29.39,11,4,13,0.00